Weather History for KELN - January, 2013

Change the Weather History Date:

Tuesday, January 8, 2013

  Actual Average (KYKM) Record (KYKM)
Temperature  
Mean Temperature 34 °F 29 °F  
Max Temperature 41 °F 37 °F 56 °F (2002)
Min Temperature 28 °F 22 °F -14 °F (1974)
Degree Days  
Heating Degree Days 30 36  
Month to date heating degree days 291  
Since 1 July heating degree days 2954  
Cooling Degree Days 0 0  
Month to date cooling degree days 0  
Year to date cooling degree days 0  
Moisture  
Dew Point 28 °F    
Average Humidity 78    
Maximum Humidity 89    
Minimum Humidity 60    
Precipitation  
Precipitation 0.02 in 0.05 in 0.73 in (1953)
Month to date precipitation 0.35  
Year to date precipitation 0.35  
Snow  
Snow 0.00 in 0.20 in 4.20 in (1980)
Month to date snowfall 1.9  
Year to date snowfall 1.9  
Since 1 July snowfall 14.9  
Snow Depth -    
Sea Level Pressure  
Sea Level Pressure 29.98 in    
Wind  
Wind Speed 5 mph (NNW)    
Max Wind Speed 15 mph    
Max Gust Speed -    
Visibility 8 miles    
Events Rain    
T = Trace of Precipitation, MM = Missing Value Source: NWS Daily Summary

Daily Weather History Graph

Daily Weather History Graph

Search for Another Location

Airport or City:

Trip Planner

Search our weather history database for the weather conditions in past years. The results will help you decide how hot, cold, wet, or windy it might be!

Date:

Astronomy

Jan. 08, 2013 Rise Set
Actual Time 7:46 AM PST 4:31 PM PST
Civil Twilight 7:12 AM PST 5:06 PM PST
Nautical Twilight 6:33 AM PST 5:44 PM PST
Astronomical Twilight 5:56 AM PST 6:21 PM PST
Moon 4:24 AM PST (1/8) 1:39 PM PST (1/8)
Length of Visible Light 9h 54m
Length of Day
8h 44m
Waning Crescent, 13% of the Moon is Illuminated
Jan 8
Waning Crescent
Jan 11
New
Jan 18
First Quarter
Jan 26
Full
Feb 3
Last Quarter

Hourly Weather History & Observations

Time (PST) Temp. Windchill Dew Point Humidity Pressure Visibility Wind Dir Wind Speed Gust Speed Precip Events Conditions
12:53 AM 41.0 °F 35.8 °F 28.0 °F 60% 30.11 in 10.0 mi NW 8.1 mph - N/A   Clear
1:53 AM 39.9 °F 31.8 °F 28.0 °F 63% 30.12 in 10.0 mi NW 15.0 mph - N/A   Clear
2:53 AM 39.9 °F 34.5 °F 28.0 °F 63% 30.12 in 10.0 mi WNW 8.1 mph - N/A   Clear
3:53 AM 36.0 °F 29.0 °F 26.1 °F 67% 30.13 in 10.0 mi WNW 9.2 mph - N/A   Clear
4:53 AM 37.9 °F 35.5 °F 28.0 °F 68% 30.12 in 10.0 mi Variable 3.5 mph - N/A   Overcast
6:53 AM 36.0 °F - 27.0 °F 70% 30.10 in 10.0 mi Calm Calm - N/A   Overcast
7:53 AM 37.0 °F 33.3 °F 28.9 °F 73% 30.10 in 10.0 mi NW 4.6 mph - 0.00 in Rain Light Rain
8:53 AM 37.0 °F 34.5 °F 30.9 °F 79% 30.11 in 10.0 mi North 3.5 mph - 0.01 in   Overcast
9:53 AM 36.0 °F - 30.9 °F 82% 30.10 in 7.0 mi Calm Calm - 0.01 in Rain Light Rain
10:53 AM 39.0 °F - 33.1 °F 79% 30.07 in 10.0 mi Calm Calm - 0.00 in Rain Light Rain
11:53 AM 37.9 °F - 32.0 °F 79% 30.03 in 10.0 mi Calm Calm - 0.00 in   Overcast
12:53 PM 39.0 °F - 32.0 °F 76% 30.00 in 10.0 mi Calm Calm - N/A   Scattered Clouds
1:28 PM 37.4 °F - 32.0 °F 81% 29.96 in 10.0 mi Calm Calm - N/A   Mostly Cloudy
1:53 PM 39.0 °F 36.8 °F 32.0 °F 76% 29.99 in 10.0 mi NW 3.5 mph - N/A   Overcast
2:53 PM 37.9 °F 34.4 °F 32.0 °F 79% 29.98 in 10.0 mi NNW 4.6 mph - N/A   Overcast
3:25 PM 37.4 °F 34.9 °F 30.2 °F 75% 29.94 in 10.0 mi NNW 3.5 mph - N/A   Mostly Cloudy
3:34 PM 37.4 °F 33.8 °F 30.2 °F 75% 29.93 in 10.0 mi North 4.6 mph - N/A   Scattered Clouds
3:53 PM 36.0 °F - 30.9 °F 82% 29.96 in 10.0 mi Calm Calm - N/A   Clear
4:53 PM 33.1 °F 30.0 °F 28.0 °F 82% 29.94 in 10.0 mi NE 3.5 mph - N/A   Clear
5:53 PM 30.0 °F 26.5 °F 25.0 °F 82% 29.91 in 10.0 mi NNW 3.5 mph - N/A   Mostly Cloudy
6:53 PM 30.9 °F 27.5 °F 27.0 °F 85% 29.89 in 10.0 mi NW 3.5 mph - N/A   Mostly Cloudy
7:53 PM 28.9 °F - 24.1 °F 82% 29.87 in 10.0 mi Calm Calm - N/A   Scattered Clouds
9:53 PM 28.9 °F 23.9 °F 25.0 °F 85% 29.85 in 5.0 mi North 4.6 mph - N/A   Partly Cloudy
10:51 PM 28.4 °F - 24.8 °F 86% 29.79 in 2.5 mi Calm Calm - N/A   Mostly Cloudy
10:53 PM 28.0 °F - 24.1 °F 85% 29.84 in 1.2 mi Calm Calm - N/A   Mostly Cloudy
10:55 PM 28.4 °F - 24.8 °F 86% 29.80 in 0.8 mi Calm Calm - N/A   Mist
11:46 PM 28.4 °F 23.3 °F 24.8 °F 86% 29.78 in 1.0 mi North 4.6 mph - N/A   Mist
11:53 PM 28.9 °F 25.2 °F 26.1 °F 89% 29.82 in 1.0 mi North 3.5 mph - N/A   Mist